Location: C�mpuri de-Sus
(45.9500°N, 22.5500°E)
Time: 05:31:04
(UTC+00:00)

Meteor 2-10 Rocket - Pass Details

Date: 24 October 2021
Orbit: 733 x 885 km, 81.2° (Epoch: 04 December)

Event Time Altitude Azimuth Distance (km) Brightness Sun altitude
Rises 17:27:47 0° 198° (SSW) 3,402 7.0 -21.4°
Reaches altitude 10° 17:30:16 10° 201° (SSW) 2,451 6.3 -21.8°
Maximum altitude 17:35:46 65° 283° (WNW) 899 4.0 -22.8°
Drops below altitude 10° 17:41:05 10° 5° (N) 2,366 6.0 -23.7°
Sets 17:43:27 0° 9° (N) 3,277 6.8 -24.1°
